| Date | Time | Temp. (oF) | Dew Point (oF) | Rel. Hum. (%) | Press. (in.) | Wind Dir. (deg.) | Wind Speed (mph) | Hourly Rainfall (i n.) |
|
|---|---|---|---|---|---|---|---|---|---|
| 1 | 12/01 | 24:00 | 25 | 12 | 59 | 30.50 | 10 | 7 | 0.00 |
| 2 | 11/30 | 23:00 | 26 | 12 | 57 | 30.51 | 310 | 6 | 0.00 |
| 3 | 11/30 | 22:00 | 27 | 12 | 54 | 30.51 | 350 | 11 | 0.00 |
| 4 | 11/30 | 21:00 | 28 | 12 | 52 | 30.53 | 10 | 9 | 0.00 |
| 5 | 11/30 | 20:00 | 29 | 12 | 49 | 30.53 | 330 | 4 | 0.00 |
| 6 | 11/30 | 19:00 | 29 | 14 | 55 | 30.52 | 290 | 6 | 0.00 |
| 7 | 11/30 | 18:00 | 30 | 16 | 56 | 30.51 | 30 | 9 | 0.00 |
| 8 | 11/30 | 17:00 | 31 | 15 | 53 | 30.50 | 330 | 7 | 0.00 |
| 9 | 11/30 | 16:00 | 33 | 16 | 51 | 30.49 | 300 | 6 | 0.00 |
| 10 | 11/30 | 15:00 | 34 | 16 | 49 | 30.48 | 290 | 9 | 0.00 |
| 11 | 11/30 | 14:00 | 34 | 17 | 51 | 30.48 | 310 | 6 | 0.00 |
| 12 | 11/30 | 13:00 | 35 | 17 | 49 | 30.49 | 10 | 7 | 0.00 |
| 13 | 11/30 | 12:00 | 35 | 17 | 48 | 30.49 | 350 | 9 | 0.00 |
| 14 | 11/30 | 11:00 | 33 | 16 | 51 | 30.50 | 340 | 7 | 0.00 |
| 15 | 11/30 | 10:00 | 32 | 18 | 57 | 30.50 | 290 | 9 | 0.00 |
| 16 | 11/30 | 09:00 | 30 | 19 | 65 | 30.50 | 30 | 9 | 0.00 |
| 17 | 11/30 | 08:00 | 28 | 18 | 68 | 30.49 | 290 | 7 | 0.00 |
| 18 | 11/30 | 07:00 | 28 | 19 | 69 | 30.48 | 330 | 4 | 0.00 |
| 19 | 11/30 | 06:00 | 28 | 19 | 69 | 30.46 | 320 | 2 | 0.00 |
| 20 | 11/30 | 05:00 | 28 | 18 | 68 | 30.45 | 310 | 4 | 0.00 |
| 21 | 11/30 | 04:00 | 29 | 19 | 66 | 30.45 | 270 | 7 | 0.00 |
| 22 | 11/30 | 03:00 | 30 | 20 | 66 | 30.45 | 330 | 4 | 0.00 |
| 23 | 11/30 | 02:00 | 30 | 22 | 73 | 30.44 | 290 | 2 | 0.00 |
| 24 | 11/30 | 01:00 | 31 | 23 | 72 | 30.43 | 330 | 4 | 0.00 |